Regional Weather Roundup
Issued by NWS Jackson, KY

Home | Current Version | Previous Version | Graphics & Text | Print | Product List | Glossary On
Versions: 1 2 3 4 5 6 7 8 9 10 11 12 13 14 15 16 17 18 19 20 21 22 23 24 25 26 27 28 29 30 31 32 33 34 35 36 37 38 39 40 41 42 43 44 45 46 47 48 49 50
000
ASUS43 KJKL 241610
RWRJKL

EAST KENTUCKY HOURLY WEATHER ROUNDUP
NATIONAL WEATHER SERVICE JACKSON KY
1200 PM EDT FRI MAR 24 2017

NOTE: "FAIR" INDICATES FEW OR NO CLOUDS BELOW 12,000 FEET WITH
NO SIGNIFICANT WEATHER AND/OR OBSTRUCTIONS TO VISIBILITY.

* THESE REPORTS ARE NOT UNDER NWS QUALITY CONTROL AND MAY NOT
  REPORT WEATHER SUCH AS PRECIPITATION AND FOG.

KYZ079-080-083-085-087-088-110-112-115-119-120-241700
...EASTERN KENTUCKY...

CITY           SKY/WX    TMP DP  RH WIND       PRES   REMARKS
JACKSON        MOSUNNY   69  47  45 VRB7      30.30S
LONDON         CLOUDY    66  44  45 S8        30.32R
SOMERSET*      CLOUDY    64  46  52 S12       30.32R
MONTICELLO*    CLOUDY    68  51  54 S9G21     30.32R
WILLIAMSBURG*  MOSUNNY   70  48  46 S12G17    30.32S
MIDDLESBORO*   MOSUNNY   66  45  47 S12       30.36F
HARLAN APT*    SUNNY     68  41  37 S6        30.35S
PIKE CO APT*   PTSUNNY   65  43  45 CALM      30.32S
BIG SANDY APT* SUNNY     68  45  43 SW7       30.31S
MOREHEAD APT*  CLOUDY    70  48  46 W15G24    30.29S
ASHLAND*       CLOUDY    66  48  52 W7        30.26S
$$

KYZ035-036-041-042-044-050-067-078-099-241700
...CENTRAL KENTUCKY...

CITY           SKY/WX    TMP DP  RH WIND       PRES   REMARKS
MT STERLING*   PTSUNNY   68  52  56 W12G25    30.29S
FLEMING/MASON* CLOUDY    66  50  56 SW17G29   30.28R
DANVILLE*      SUNNY     68  52  56 SW21G28   30.28R
LEXINGTON      PTSUNNY   67  49  52 SW18G26   30.27R
FRANKFORT      PTSUNNY   69  48  47 SW15G30   30.25R
LOUISVILLE     MOSUNNY   72  50  45 SW20G25   30.23R
LEBANON*       PTSUNNY   68  50  52 S20       30.27S
GLASGOW*       SUNNY     69  51  53 SW17G23   30.28S
BOWLING GREEN  SUNNY     71  53  52 S22       30.27R
$$

KYZ091>093-OHZ055-061-077-WVZ005-015-034-035-042-241700
...SOUTHERN OHIO/WEST VIRGINIA...

CITY           SKY/WX    TMP DP  RH WIND       PRES   REMARKS
COVINGTON      PTSUNNY   66  50  56 SW15G24   30.23R
COLUMBUS       PTSUNNY   64  47  53 SW16G26   30.21S
DAYTON         PTSUNNY   60  46  59 S20G25    30.18S
WILMINGTON     CLOUDY    62  49  62 SW20G26   30.22S
HUNTINGTON     SUNNY     68  44  42 SW12      30.28S
CHARLESTON     PTSUNNY   69  44  40 SW10      30.28F
PINEVILLE*     PTSUNNY   67  35  31 MISG      30.39S
BECKLEY        MOSUNNY   64  42  44 W12G17    30.34F
BLUEFIELD      PTSUNNY   63  44  50 SW13      30.37F
LOGAN CO APT*  PTSUNNY   64  41  42 CALM      30.32S
$$

VAZ002-007-008-TNZ017-027-036-066-071-241700
...SOUTHWEST VIRGINIA/EAST TENNESSEE...

CITY           SKY/WX    TMP DP  RH WIND       PRES   REMARKS
WISE*          MOSUNNY   61  41  48 CALM      30.38R
JONESVILLE*    PTSUNNY   64  39  39 SW8       30.40S
ABINGDON*      MOSUNNY   64  40  40 W9        30.39S
BRISTOL        MOSUNNY   64  40  41 VRB6      30.38F
MORRISTOWN*    MOSUNNY   63  41  45 CALM      30.37F
SEVIERVILLE*   SUNNY     63  41  45 CALM      30.37S
KNOXVILLE      PTSUNNY   65  44  46 SW15      30.37R
LAFOLLETTE*    MOSUNNY   66  45  45 S14G22    30.38F
OAK RIDGE      PTSUNNY   64  43  46 S9G23     30.39S
CROSSVILLE     SUNNY     60  45  57 S12G23    30.36F
NASHVILLE      PTSUNNY   70  52  52 S16       30.29R
$$

...KEY TO REMARKS...
VSB - VISIBILITY IN MILES
WCI - WIND CHILL INDEX
HX  - HEAT INDEX

$$



USA.gov is the U.S. government's official web portal to all federal, state and local government web resources and services.